TimeEDT,TemperatureF,Dew PointF,Humidity,Sea Level PressureIn,VisibilityMPH,Wind Direction,Wind SpeedMPH,Gust SpeedMPH,PrecipitationIn,Events,Conditions,WindDirDegrees,DateUTC
12:53 AM,82.9,72.0,69,30.06,10.0,East,6.9,-,N/A,,Partly Cloudy,100,2013-08-10 04:53:00
1:53 AM,82.9,73.0,72,30.06,10.0,East,8.1,-,N/A,,Partly Cloudy,100,2013-08-10 05:53:00
2:53 AM,82.9,72.0,69,30.05,10.0,ESE,9.2,-,N/A,,Partly Cloudy,120,2013-08-10 06:53:00
3:53 AM,82.9,73.0,72,30.05,10.0,ESE,10.4,-,N/A,,Partly Cloudy,120,2013-08-10 07:53:00
4:53 AM,82.9,73.0,72,30.05,10.0,SE,8.1,-,N/A,,Partly Cloudy,130,2013-08-10 08:53:00
5:53 AM,82.9,73.0,72,30.06,10.0,ESE,10.4,-,N/A,,Partly Cloudy,120,2013-08-10 09:53:00
6:53 AM,82.9,73.0,72,30.06,10.0,ESE,10.4,-,N/A,,Mostly Cloudy,120,2013-08-10 10:53:00
7:53 AM,84.0,72.0,67,30.07,10.0,ESE,9.2,-,N/A,,Scattered Clouds,120,2013-08-10 11:53:00
8:53 AM,86.0,73.0,65,30.09,10.0,ESE,12.7,-,N/A,,Scattered Clouds,120,2013-08-10 12:53:00
9:53 AM,88.0,72.0,59,30.11,10.0,ESE,13.8,-,N/A,,Scattered Clouds,120,2013-08-10 13:53:00
10:53 AM,89.1,73.0,59,30.12,10.0,SE,15.0,21.9,N/A,,Scattered Clouds,130,2013-08-10 14:53:00
11:53 AM,89.1,73.9,61,30.12,10.0,ESE,15.0,23.0,N/A,,Scattered Clouds,120,2013-08-10 15:53:00
12:53 PM,90.0,73.9,59,30.12,10.0,SE,13.8,23.0,N/A,,Scattered Clouds,140,2013-08-10 16:53:00
1:53 PM,91.0,73.0,55,30.12,10.0,SSE,12.7,-,N/A,,Scattered Clouds,150,2013-08-10 17:53:00
2:53 PM,91.0,73.9,57,30.10,10.0,East,15.0,-,N/A,,Scattered Clouds,100,2013-08-10 18:53:00
3:53 PM,90.0,73.0,57,30.08,10.0,SE,11.5,20.7,N/A,,Scattered Clouds,130,2013-08-10 19:53:00
4:53 PM,89.1,72.0,57,30.07,10.0,ESE,11.5,-,N/A,,Scattered Clouds,120,2013-08-10 20:53:00
5:53 PM,89.1,73.0,59,30.07,10.0,ESE,15.0,-,N/A,,Scattered Clouds,110,2013-08-10 21:53:00
6:53 PM,87.1,72.0,61,30.07,10.0,ESE,11.5,-,N/A,,Scattered Clouds,110,2013-08-10 22:53:00
7:53 PM,86.0,73.0,65,30.09,10.0,ESE,11.5,-,N/A,,Scattered Clouds,110,2013-08-10 23:53:00
8:53 PM,84.9,73.0,67,30.09,10.0,ESE,12.7,-,N/A,,Partly Cloudy,110,2013-08-11 00:53:00
9:53 PM,84.9,72.0,65,30.09,10.0,ESE,10.4,-,N/A,,Partly Cloudy,120,2013-08-11 01:53:00
10:53 PM,84.9,73.0,67,30.10,10.0,ESE,10.4,-,N/A,,Partly Cloudy,110,2013-08-11 02:53:00
11:53 PM,84.9,73.0,67,30.11,10.0,ESE,11.5,-,N/A,,Partly Cloudy,110,2013-08-11 03:53:00